Location: *
(58.4167°N, 22.5000°E)
Time: 13:30:26
(UTC+00:00)

Cosmos 1606 Rocket - Pass Details

Date: 22 September 2019
Orbit: 602 x 633 km, 82.5° (Epoch: 20 October)

Event Time Altitude Azimuth Distance (km) Brightness Sun altitude
Exits shadow 20:32:06 52° 290° (WNW) 796 4.3 -27.5°
Drops below altitude 10° 20:36:28 10° 7° (N) 2,020 6.8 -27.8°
Sets 20:38:45 0° 12° (NNE) 2,927 7.7 -27.9°
